Wind_Speed
14 13 12 11 11 10 9 8 8 8 7 7 7 7 7 7 7 7 7 7 7 7 7 7 8 8 8 8 9 9 9 9 9 10 10 11 11 11 12 12 12 12 13
14 14 13 13 12 11 11 10 10 10 9 9 8 8 8 8 9 8 8 9 9 9 9 9 9 10 10 11 11 11 11 11 11 11 12 12 12 13 13 14 14 14 14
16 15 14 14 13 13 13 12 12 11 11 11 10 9 9 10 10 10 10 10 10 11 11 11 11 12 12 12 13 13 13 13 13 13 13 14 14 14 15 15 15 15 15
17 16 15 15 15 14 14 14 14 13 13 13 12 12 11 12 12 12 12 12 12 12 12 13 13 13 13 14 14 15 15 15 15 15 15 15 15 16 16 16 16 16 17
18 18 17 17 16 16 15 15 15 15 15 15 14 14 14 14 14 14 14 14 14 14 14 14 15 15 15 16 16 16 16 16 16 16 17 17 17 17 17 17 18 18 18
20 19 18 18 18 17 17 17 16 16 16 16 16 15 15 16 16 16 16 16 16 16 16 16 17 17 17 17 17 17 17 17 17 18 18 18 19 19 19 19 20 20 20
21 21 20 19 19 19 19 19 18 18 18 17 17 17 17 17 17 17 18 18 18 18 18 18 18 18 18 18 18 18 19 19 20 20 20 21 21 21 21 21 21 21 21
23 22 22 21 20 20 20 20 20 19 19 19 19 19 19 19 19 19 19 19 19 19 19 20 20 19 19 20 20 20 21 21 22 22 23 23 23 23 23 23 23 23 23
25 24 23 23 22 22 22 21 21 21 20 20 20 20 20 20 20 20 20 21 21 21 21 21 21 21 21 21 22 22 23 23 24 24 24 24 25 25 25 25 26 26 26
26 26 25 25 24 24 23 23 22 22 22 22 21 21 21 22 22 22 22 22 22 23 23 23 23 23 23 23 24 24 24 25 25 26 26 26 27 27 27 28 28 28 29
28 28 27 26 26 26 25 25 24 24 24 23 23 23 23 23 23 23 23 23 23 23 24 24 24 25 25 25 26 26 27 27 27 28 28 29 29 29 30 30 31 31 32
30 29 28 28 27 27 26 26 25 25 25 25 25 24 24 24 24 24 24 24 24 24 24 25 25 26 26 27 27 28 28 28 29 29 30 30 31 31 32 32 33 33 34
31 30 29 29 28 27 27 26 26 26 26 26 25 26 26 26 25 25 25 26 26 26 27 27 27 28 28 29 29 29 29 30 31 31 32 33 33 33 34 34 35 35 36
32 31 30 30 29 28 28 27 27 26 26 26 26 26 27 27 27 27 27 28 28 29 29 29 30 30 30 31 31 31 32 32 33 33 34 35 35 36 36 36 36 37 37
33 32 31 30 30 29 29 28 28 28 27 27 28 28 28 28 28 29 29 30 30 30 31 31 31 32 32 32 32 33 33 34 34 35 35 36 37 37 37 38 38 38 39
34 33 33 32 31 30 30 30 29 29 29 29 29 29 29 29 29 30 30 31 31 32 32 33 33 33 33 34 34 34 35 35 36 36 37 37 37 38 38 39 39 40 40
36 35 34 33 32 31 31 31 30 30 29 29 30 30 30 30 30 31 31 32 32 33 33 34 34 35 35 35 35 35 36 37 37 38 38 39 39 39 40 40 41 41 42
37 36 35 35 33 33 32 32 31 31 30 30 30 30 30 30 31 32 32 32 33 33 34 35 35 35 36 36 37 37 38 39 39 39 40 40 40 41 41 42 42 43 43
38 37 36 36 35 34 33 33 32 32 32 31 31 31 31 31 32 32 33 33 34 34 35 35 36 36 37 38 38 39 39 39 40 40 41 41 42 43 44 44 44 45 45
39 38 37 37 37 36 35 34 34 33 33 33 32 32 32 33 33 34 34 35 35 35 36 36 37 38 38 39 39 40 40 40 41 41 42 43 44 44 45 46 46 47 47
39 39 38 38 38 37 37 36 36 35 35 34 34 34 34 35 35 35 35 36 36 37 37 38 38 39 39 40 40 41 41 41 41 42 43 43 44 45 46 47 48 48 49
40 39 39 39 38 38 38 38 38 37 37 37 37 37 37 37 37 37 37 37 38 38 38 39 40 40 41 41 42 42 42 42 42 43 44 44 45 46 47 48 49 50 50
40 40 40 40 40 40 39 39 39 39 39 39 39 39 39 39 39 39 39 39 39 40 40 40 41 41 42 42 43 44 44 44 43 43 44 45 46 47 48 49 49 50 51
41 41 41 41 41 41 41 40 40 40 40 40 40 40 40 40 40 40 40 40 40 41 41 41 42 42 43 43 44 45 45 45 45 44 45 46 46 47 48 49 50 51 52
42 42 42 42 42 42 41 41 41 41 41 41 40 41 41 41 41 41 41 42 42 42 42 42 43 44 44 44 44 45 45 46 46 47 46 46 47 48 50 50 51 52 53
43 44 43 43 42 42 41 42 41 41 41 41 41 41 42 42 42 42 43 43 44 44 44 44 44 44 44 45 45 45 46 46 48 48 48 48 48 49 51 52 52 53 53
Wind_Direction
242 240 239 238 238 236 234 235 235 232 232 233 235 241 246 250 253 256 261 263 267 272 276 276 280 282 283 286 291 293 294 295 297 297 298 299 301 302 302 301 302 303 303
244 242 240 240 239 240 240 239 242 241 239 240 241 243 246 249 252 258 262 266 266 269 272 274 278 281 282 283 286 289 291 293 294 294 295 295 296 297 298 298 299 301 302
243 241 240 241 241 243 245 245 246 247 246 246 246 247 247 250 252 256 260 265 267 268 269 273 276 279 280 281 282 285 288 291 292 292 293 293 294 294 295 295 296 298 299
240 240 241 242 243 245 247 248 248 249 249 250 251 251 250 251 254 257 260 263 266 268 269 271 274 276 277 280 280 282 284 287 289 290 290 291 292 292 293 293 294 295 296
240 240 241 243 245 246 248 250 250 250 251 252 254 254 252 252 255 259 262 263 266 268 269 270 272 274 276 278 280 281 282 284 285 286 287 289 290 291 291 291 292 292 294
239 240 242 245 247 248 249 251 252 252 253 254 254 255 255 255 257 259 261 264 266 268 269 270 271 273 275 277 279 280 281 282 283 284 286 288 289 289 289 289 290 291 292
240 242 244 246 248 249 250 250 252 253 253 254 255 256 257 258 259 260 262 264 265 267 268 269 271 272 273 275 277 278 279 280 281 283 284 286 287 287 287 288 289 290 291
242 243 245 247 248 250 250 251 252 253 254 254 256 257 258 259 261 261 262 264 266 267 268 268 269 271 273 274 276 277 278 279 280 282 283 284 284 285 286 287 288 289 289
243 245 246 247 248 250 251 252 253 254 254 255 256 257 259 260 261 262 263 265 266 267 267 268 269 271 272 273 276 277 278 279 280 281 282 283 284 285 286 286 287 288 289
244 245 246 247 249 250 251 252 253 254 254 255 256 258 259 260 261 262 263 265 267 268 269 269 270 272 273 274 275 277 278 279 280 280 282 283 284 285 285 286 287 287 288
244 245 246 247 248 249 250 252 253 254 255 255 255 256 257 258 260 262 264 266 268 269 270 271 272 273 274 275 277 278 279 280 280 281 282 284 284 285 285 285 286 286 287
244 244 245 246 247 248 250 251 252 253 254 255 255 255 257 258 260 262 264 265 268 269 270 272 273 275 275 276 277 278 279 279 281 281 282 284 284 285 285 285 285 286 286
243 244 244 246 246 248 250 251 252 252 253 254 255 256 257 259 261 263 264 266 268 270 271 272 274 275 276 277 278 278 279 280 281 282 282 283 284 284 285 285 285 286 286
243 244 245 246 247 248 249 250 251 252 253 254 255 257 258 260 262 264 265 267 268 270 271 273 274 276 277 278 278 279 279 280 281 282 282 283 284 284 284 285 285 285 285
243 244 245 246 247 248 248 249 250 252 253 254 256 258 259 261 263 265 266 268 269 271 272 273 275 276 277 278 279 280 281 281 282 283 283 284 284 284 284 285 285 285 285
242 243 245 245 246 247 248 249 251 252 254 256 257 259 261 262 264 265 267 269 270 271 273 274 275 276 277 278 279 280 281 282 283 283 283 284 284 284 285 285 285 285 285
242 243 244 245 246 247 248 249 251 253 255 256 258 260 262 263 265 266 268 269 270 272 273 274 275 277 277 278 279 279 281 282 283 283 283 284 284 284 285 285 285 284 285
242 243 244 245 245 246 248 250 251 253 255 256 258 260 261 264 266 268 269 270 271 272 273 274 275 276 278 279 280 280 281 282 282 283 284 284 284 285 285 284 284 285 285
241 242 243 244 245 246 248 250 252 253 254 256 258 260 262 264 267 269 271 272 273 274 275 275 276 277 278 279 280 281 281 282 283 283 284 284 285 285 285 285 285 285 285
241 242 243 244 245 246 248 250 251 253 255 256 258 261 263 265 267 270 272 273 274 275 275 276 277 277 278 279 279 280 281 281 282 283 284 284 285 286 286 285 285 285 285
242 243 244 245 246 247 248 250 251 253 255 258 260 262 263 265 268 270 272 273 274 275 276 277 278 279 279 279 280 280 281 282 283 284 285 286 286 287 287 286 286 286 286
242 243 244 245 246 248 249 250 251 253 256 258 261 262 264 266 268 269 271 273 274 275 276 277 278 279 280 280 281 280 280 280 281 283 284 285 287 288 288 288 287 287 287
241 242 244 245 247 248 249 250 252 254 256 258 261 263 265 266 268 270 271 272 274 275 276 277 278 279 280 281 281 282 282 282 282 283 285 287 288 288 289 288 288 287 287
242 242 244 246 247 249 250 251 253 255 257 259 261 263 265 267 268 270 271 272 274 275 276 277 279 280 280 281 282 283 283 284 284 284 286 287 288 289 290 290 289 289 289
243 244 245 246 247 249 250 251 253 255 257 260 262 264 265 267 268 270 271 273 274 275 276 278 279 280 281 281 282 283 284 284 286 286 287 287 288 290 291 291 291 291 291
244 245 245 246 247 249 250 252 254 256 258 261 263 265 266 268 269 270 272 273 274 275 276 277 279 280 280 281 282 283 284 285 286 288 288 288 289 291 291 292 292 292 292
Height
5855 5856 5857 5859 5860 5862 5863 5864 5866 5867 5868 5869 5869 5870 5871 5872 5873 5874 5874 5875 5876 5877 5877 5878 5878 5879 5879 5879 5880 5880 5880 5880 5879 5879 5879 5879 5879 5878 5878 5878 5877 5877 5876
5853 5854 5855 5857 5858 5860 5861 5863 5864 5865 5866 5867 5868 5869 5870 5871 5871 5872 5873 5874 5875 5875 5876 5877 5877 5877 5878 5878 5878 5878 5878 5878 5878 5878 5878 5877 5877 5877 5876 5876 5875 5875 5874
5850 5852 5853 5854 5856 5857 5859 5860 5862 5863 5864 5866 5866 5867 5868 5869 5870 5871 5872 5872 5873 5874 5874 5875 5875 5876 5876 5876 5876 5876 5876 5876 5876 5876 5876 5875 5875 5875 5874 5874 5873 5873 5872
5847 5849 5850 5852 5853 5855 5856 5858 5859 5861 5862 5863 5864 5865 5866 5867 5868 5869 5870 5870 5871 5872 5872 5873 5873 5873 5874 5874 5874 5874 5874 5874 5874 5874 5873 5873 5873 5872 5872 5871 5871 5870 5870
5844 5846 5848 5849 5851 5852 5854 5855 5857 5858 5859 5861 5862 5863 5864 5865 5866 5867 5867 5868 5869 5869 5870 5870 5871 5871 5871 5871 5871 5872 5872 5871 5871 5871 5871 5871 5870 5870 5869 5869 5868 5867 5867
5841 5843 5845 5846 5848 5849 5851 5852 5854 5855 5856 5858 5859 5860 5861 5862 5863 5864 5864 5865 5866 5866 5867 5867 5868 5868 5868 5868 5869 5869 5869 5869 5868 5868 5868 5868 5867 5867 5866 5865 5865 5864 5863
5838 5839 5841 5843 5845 5846 5848 5849 5851 5852 5853 5854 5856 5857 5858 5859 5860 5860 5861 5862 5862 5863 5864 5864 5865 5865 5865 5865 5865 5865 5866 5865 5865 5865 5865 5864 5864 5863 5863 5862 5861 5860 5860
5834 5836 5837 5839 5841 5843 5844 5846 5847 5848 5850 5851 5852 5853 5854 5855 5856 5857 5858 5858 5859 5859 5860 5861 5861 5861 5862 5862 5862 5862 5862 5862 5862 5861 5861 5860 5860 5859 5859 5858 5857 5857 5856
5830 5832 5834 5835 5837 5839 5840 5842 5843 5845 5846 5847 5848 5849 5850 5851 5852 5853 5854 5855 5855 5856 5856 5857 5857 5857 5858 5858 5858 5858 5858 5858 5857 5857 5857 5856 5856 5855 5854 5854 5853 5852 5851
5826 5828 5829 5831 5833 5835 5836 5838 5839 5841 5842 5843 5844 5845 5846 5847 5848 5849 5850 5851 5851 5852 5852 5852 5853 5853 5853 5853 5853 5853 5853 5853 5853 5852 5852 5851 5851 5850 5849 5849 5848 5847 5846
5821 5823 5825 5827 5829 5830 5832 5834 5835 5836 5838 5839 5840 5841 5842 5843 5844 5845 5846 5846 5847 5847 5848 5848 5848 5849 5849 5849 5849 5849 5848 5848 5848 5847 5847 5846 5846 5845 5844 5843 5842 5841 5840
5816 5818 5820 5822 5824 5826 5827 5829 5830 5832 5833 5834 5835 5836 5837 5838 5839 5840 5841 5842 5842 5843 5843 5843 5843 5844 5844 5844 5844 5843 5843 5843 5842 5842 5841 5841 5840 5839 5838 5837 5836 5835 5834
5810 5812 5815 5817 5819 5821 5822 5824 5825 5827 5828 5829 5830 5831 5832 5834 5835 5836 5836 5837 5837 5838 5838 5838 5838 5838 5838 5838 5838 5838 5837 5837 5836 5836 5835 5834 5834 5833 5832 5831 5830 5828 5827
5804 5807 5809 5811 5813 5815 5817 5819 5820 5821 5823 5824 5825 5826 5827 5829 5829 5830 5831 5832 5832 5832 5832 5832 5832 5832 5832 5832 5832 5831 5831 5830 5830 5829 5828 5827 5826 5825 5824 5823 5822 5821 5819
5799 5801 5803 5806 5808 5810 5811 5813 5815 5816 5818 5819 5820 5821 5822 5823 5824 5825 5825 5826 5826 5826 5827 5826 5826 5826 5826 5826 5825 5825 5824 5823 5823 5822 5821 5820 5819 5818 5817 5815 5814 5813 5811
5792 5795 5797 5800 5802 5804 5805 5807 5809 5810 5812 5813 5814 5815 5816 5817 5818 5819 5819 5819 5820 5820 5820 5820 5820 5820 5819 5819 5818 5818 5817 5816 5815 5814 5813 5812 5811 5810 5808 5807 5806 5804 5803
5785 5788 5791 5793 5795 5798 5799 5801 5803 5805 5806 5807 5808 5809 5810 5811 5812 5812 5813 5813 5813 5813 5813 5813 5813 5812 5812 5812 5811 5810 5809 5808 5807 5806 5805 5804 5803 5801 5800 5798 5797 5795 5794
5778 5781 5784 5786 5789 5791 5793 5795 5797 5798 5800 5801 5802 5803 5804 5804 5805 5805 5806 5806 5806 5806 5806 5806 5805 5805 5804 5804 5803 5802 5801 5800 5799 5798 5797 5795 5794 5792 5791 5789 5787 5786 5784
5771 5774 5776 5779 5782 5784 5786 5788 5790 5792 5793 5794 5795 5796 5797 5798 5798 5798 5799 5799 5798 5798 5798 5798 5798 5797 5796 5796 5795 5794 5793 5792 5790 5789 5788 5786 5784 5783 5781 5779 5777 5775 5774
5763 5766 5769 5772 5775 5777 5779 5781 5783 5785 5786 5787 5788 5789 5790 5790 5791 5791 5791 5791 5791 5791 5790 5790 5789 5788 5788 5787 5786 5785 5784 5783 5782 5780 5778 5776 5774 5772 5770 5768 5766 5764 5762
5755 5759 5762 5765 5767 5770 5772 5774 5775 5777 5778 5780 5781 5782 5783 5783 5783 5784 5784 5783 5783 5783 5782 5781 5781 5780 5779 5778 5777 5776 5775 5774 5773 5771 5769 5767 5764 5762 5760 5757 5755 5752 5750
5748 5751 5754 5757 5759 5761 5764 5766 5768 5769 5771 5772 5773 5774 5775 5775 5775 5776 5776 5775 5775 5774 5773 5773 5772 5771 5769 5768 5767 5766 5766 5767 5764 5762 5759 5757 5754 5751 5749 5745 5742 5740 5737
5739 5742 5745 5748 5750 5753 5755 5757 5759 5761 5763 5764 5765 5766 5766 5766 5767 5767 5767 5767 5766 5765 5764 5763 5762 5761 5760 5758 5757 5755 5754 5754 5754 5753 5750 5747 5744 5741 5737 5733 5730 5727 5724
5730 5733 5736 5739 5742 5744 5747 5749 5751 5753 5754 5755 5756 5757 5757 5758 5758 5758 5758 5757 5757 5756 5755 5754 5752 5751 5750 5748 5747 5745 5743 5741 5741 5741 5740 5736 5732 5729 5725 5721 5718 5714 5710
5721 5724 5727 5730 5733 5735 5738 5740 5742 5744 5745 5746 5747 5748 5748 5749 5749 5748 5748 5747 5747 5746 5745 5743 5742 5741 5739 5738 5736 5735 5733 5731 5728 5727 5727 5725 5722 5718 5713 5709 5705 5701 5697
5712 5715 5718 5721 5724 5726 5729 5731 5733 5734 5736 5737 5738 5738 5739 5739 5739 5738 5738 5737 5736 5735 5734 5733 5731 5730 5729 5727 5726 5724 5722 5720 5718 5715 5713 5712 5710 5707 5702 5697 5692 5688 5684